Regional Weather Roundup
Issued by NWS Newport/Morehead, NC

Current Version | Previous Version | Graphics & Text | Print | Product List | Glossary Off
Versions: 1 2 3 4 5 6 7 8 9 10 11 12 13 14 15 16 17 18 19 20 21 22 23 24 25 26 27 28 29 30 31 32 33 34 35 36 37 38 39 40 41 42 43 44 45 46 47 48 49 50

935
ASUS42 KMHX 230013
RWRMHX
WEATHER ROUNDUP FOR EASTERN NORTH CAROLINA
NATIONAL WEATHER SERVICE NEWPORT/MOREHEAD CITY NC
800 PM EDT MON MAY 22 2017

NOTE: "FAIR" INDICATES FEW OR NO CLOUDS BELOW 12,000 FEET
WITH NO SIGNIFICANT WEATHER AND/OR OBSTRUCTIONS TO VISIBILITY

NCZ015>017-031-032-045>047-102-103-230100-
NORTH COAST

CITY           SKY/WX    TMP DP  RH WIND       PRES   REMARKS
EDENTON        PTCLDY    76  68  76 CALM      29.96R
ELIZABETH CITY PTCLDY    72  70  93 NW6       29.94R
KITTY HAWK     NOT AVBL
MANTEO         NOT AVBL

$$

NCZ045>047-081-094-103-104-230100-
CENTRAL COAST

CITY           SKY/WX    TMP DP  RH WIND       PRES   REMARKS
FRISCO         MOCLDY    76  69  79 SW13      29.97R

$$

NCZ095-097-098-100-101-230100-
SOUTHERN COAST

CITY           SKY/WX    TMP DP  RH WIND       PRES   REMARKS
BEAUFORT       CLOUDY    77  72  84 SW14      29.98R
CEDAR ISLAND   NOT AVBL
JACKSONVILLE   LGT RAIN  69  67  93 W10       29.97
PINEY ISLAND   CLOUDY   N/A N/A N/A S15       29.97R
WILMINGTON     LGT RAIN  69  68  96 S5        30.01R


$$

NCZ011>013-027>030-043-044-078>080-089-090>093-098-230100-
COASTAL PLAIN

CITY           SKY/WX    TMP DP  RH WIND       PRES   REMARKS
AHOSKIE          N/A     70  67  91 CALM      29.96R
CLINTON        CLOUDY    71  69  93 S3        29.98R
ELIZABETHTOWN  HVY RAIN  67  67 100 S8        29.99R
GOLDSBORO      CLOUDY    78  71  78 CALM      29.94R
GREENVILLE     CLOUDY    77  68  73 NE3       29.97R HAZE
HAVELOCK       NOT AVBL
KENANSVILLE    LGT RAIN  70  68  94 CALM      29.97R
KINSTON        CLOUDY    77  68  73 NW5       29.96R
NEW BERN       CLOUDY    71  68  90 SW6       29.99R
RICHLANDS      LGT RAIN  68  67  96 S9        29.98R
ROCKY MOUNT    CLOUDY    73  70  90 CALM      29.95R
WASHINGTON     CLOUDY    76  67  73 CALM      29.95R
WHITEVILLE     RAIN      68  67  96 S6        30.01R

$$

AMZ130-135-150-152-154-156-158-170-250-252-270-ANZ085-086-088-633-658-670-230100-
MARINE OBSERVATIONS

STATION/POSITION TIME  TEMP    WIND        PRES    WAVE   SWELL
                       AIR SEA DIR/SP/G            HT/PER HT/PER
                 (UTC) (F)     (DEG/KT/KT) (MB)    (FT/S) (FT/S)
CHESAPEAKE LIGHT NOT AVBL
64 E VA BEACH    2350   70 69  220/ 16/ 17 1014.0    4/ 9   2/ 9
DUCK             2348   71 65  180/  9/ 10 1013.7
2 E DUCK         2330      66                N/A     3/10
OREGON INLET     2342   67 76  180/ 10/ 12 1015.0
13E OREGON INLT  2348      66                N/A     3/ 8   3/ 8
HATTERAS CG      2348   76 75  200/  7/ 14 1014.6
DIAMOND BUOY     2350   78 78  200/ 17/ 21 1014.7    4/ 8   3/ 8
CAPE LOOKOUT     0000   76     210/ 10/ 13 1014.9
BEAUFORT LAB     2348   76 74  220/  7/ 12 1014.4
30 SE NEW RVR IN 2308   77 77  230/ 14/ 19 1014.8
30 SE NEW RVR IN 2343      77                N/A     4/ 4
27 SE WRIGHTSVLE 2308   76 76  200/ 14/ 19 1014.6
5 SE WRIGHTSVLE  2308   76 76  200/  8/ 14 1014.9
225 S CAPE HAT   2350   76 78  180/ 10/ 12 1017.4    3/ 8   3/ 8
41 SE CHARLESTON 2350   78 78  180/ 10/ 14 1014.6    3/ 8   2/ 8

$$




USA.gov is the U.S. government's official web portal to all federal, state and local government web resources and services.